RH
30 56 68 62 76 90 90 81 68 55 43 34 30 27 29 25 30 54 66 69 69 52 51 50 58 57 60 56 61 61 69 64 61 61 60 67 78 71 42 80 90 85 77 82 94 54 34 43 55
55 56 64 63 85 80 59 73 66 63 44 32 27 24 29 43 60 56 68 68 70 62 45 40 49 54 57 57 57 56 60 64 66 64 65 78 80 62 61 82 94 96 56 56 69 30 33 40 42
58 62 57 85 91 85 62 60 59 41 33 30 28 24 32 59 72 55 58 68 75 74 58 46 45 51 47 43 44 45 53 59 62 69 62 67 83 62 70 85 90 68 42 28 28 34 35 42 47
65 61 63 88 97 78 65 53 49 48 35 30 26 28 22 30 70 70 61 53 75 80 71 62 50 46 46 45 45 44 47 57 58 69 66 65 86 65 72 81 77 44 26 31 32 37 42 44 43
58 58 82 92 88 78 59 50 43 44 37 30 23 25 23 35 59 66 67 61 54 70 81 74 58 56 58 57 53 48 46 64 57 60 74 70 87 80 62 69 80 30 25 31 32 32 35 36 39
63 66 82 80 78 64 55 46 38 36 31 27 24 24 20 24 66 66 65 66 72 83 85 82 80 72 69 66 58 49 43 46 58 62 67 71 82 88 77 62 80 31 24 27 29 31 32 39 43
74 81 78 78 72 62 54 37 33 31 33 28 25 27 22 21 39 71 65 67 70 81 90 91 93 93 88 76 58 48 40 47 62 62 65 72 79 91 82 65 61 35 25 28 32 34 36 41 44
61 74 82 77 70 60 42 37 33 30 30 28 25 27 31 35 47 60 71 69 69 72 80 88 99 99 85 70 62 57 70 60 68 67 64 77 81 91 87 72 56 48 28 31 34 36 37 40 46
52 74 85 70 73 58 42 47 37 35 33 33 28 26 40 30 36 66 80 73 69 70 74 79 82 82 88 72 66 56 74 84 78 74 69 78 85 96 92 71 48 58 32 33 36 38 40 42 44
60 81 67 59 50 49 49 49 47 43 39 37 33 27 26 27 28 38 54 73 77 70 65 66 66 73 76 78 67 63 77 87 88 77 79 82 87 99 89 70 45 53 37 36 39 41 41 42 42
68 77 63 51 48 49 53 48 43 42 45 37 33 32 32 28 24 27 40 60 70 74 72 68 63 64 74 74 71 62 61 98 87 82 83 89 92 98 85 75 60 49 38 41 42 43 41 40 40
65 57 57 56 49 53 55 48 50 46 42 38 36 34 32 31 28 25 31 40 54 74 77 68 66 75 75 78 77 69 56 97 93 76 93 93 97 97 94 86 62 45 36 41 42 43 41 38 37
71 66 61 59 61 61 58 63 59 56 47 33 32 36 38 35 32 28 27 34 40 64 68 71 70 73 81 81 82 72 56 69 73 73 83 98 99 98 96 94 66 56 43 41 44 42 40 38 41
72 73 71 66 64 66 67 62 59 50 45 45 41 35 34 36 35 30 26 29 35 54 70 68 73 72 74 76 78 74 67 64 57 54 57 85 95 94 96 93 69 71 56 47 49 44 42 39 44
72 82 77 70 68 75 64 77 73 36 42 46 43 39 38 41 39 34 27 26 33 48 60 69 65 64 69 76 72 67 56 63 70 52 56 63 94 99 95 94 72 68 61 50 58 51 46 40 45
85 78 96 55 68 61 60 76 55 43 44 46 41 41 41 40 40 36 34 26 29 39 52 56 60 57 57 60 62 62 60 56 50 63 58 68 83 93 100 98 85 63 85 58 54 54 46 44 50
79 92 91 80 62 61 70 78 58 50 47 49 49 47 46 42 39 39 36 28 26 36 51 49 49 50 51 61 64 62 62 63 62 60 73 77 72 99 100 100 86 81 78 63 53 54 56 54 51
77 88 84 90 64 63 72 73 60 56 60 59 56 55 56 53 38 38 36 28 26 35 54 55 58 59 62 68 71 68 68 66 72 64 72 88 87 91 100 95 90 84 70 62 65 55 66 61 56
82 92 85 78 67 72 80 79 70 60 64 73 67 62 57 46 40 41 39 30 32 36 47 51 61 58 71 73 71 66 62 67 86 88 78 92 93 77 92 90 77 77 91 51 60 58 67 68 66
78 85 76 72 66 73 77 83 70 64 69 66 65 58 52 49 48 50 41 30 33 42 43 47 61 65 62 69 78 81 79 90 99 94 88 92 83 67 88 75 59 60 55 54 67 66 63 67 72
80 85 70 75 74 71 85 91 84 70 73 68 62 56 51 48 50 45 33 36 45 44 47 60 68 68 71 68 81 85 88 88 98 99 99 94 93 85 78 80 75 74 73 72 70 68 69 70 68
88 60 63 66 93 90 74 92 71 90 84 79 74 70 66 54 52 52 44 48 58 47 52 70 77 82 77 72 84 81 85 79 83 95 98 95 85 83 82 88 86 72 82 79 66 74 74 71 77
82 74 88 91 97 98 80 96 81 91 89 87 87 70 69 64 63 60 55 55 56 56 68 76 85 78 76 83 86 92 90 86 82 92 87 99 100 99 93 88 92 86 83 77 78 81 85 86 85
77 88 89 94 96 96 90 98 92 96 96 92 84 75 80 62 58 65 58 61 59 61 66 74 86 80 79 82 76 90 96 96 97 96 92 92 96 94 96 92 88 74 68 63 62 72 83 88 89
88 96 96 90 100 93 100 100 96 96 90 90 89 88 100 93 92 95 96 64 74 70 72 77 83 82 57 75 98 99 91 96 99 100 99 99 94 93 93 87 87 81 78 78 79 76 85 82 77
88 89 98 96 100 95 97 98 99 95 92 99 100 95 94 99 99 100 93 78 71 77 73 68 89 91 96 100 100 100 100 100 100 100 99 91 87 84 86 89 93 94 94 90 87 87 79 72 78
88 100 95 100 99 98 98 99 97 90 89 94 98 100 100 94 96 100 96 100 100 99 99 99 99 100 98 96 87 94 91 100 99 98 96 86 86 81 77 74 78 92 87 88 84 86 89 88 94
90 92 99 100 97 96 97 98 98 98 99 93 96 99 100 92 94 90 91 100 100 100 100 100 100 100 99 90 80 93 94 90 93 95 90 98 98 96 97 97 95 94 90 90 93 92 98 99 96
98 100 99 97 91 96 95 98 100 100 99 96 96 100 100 99 100 100 100 100 96 90 94 91 81 73 81 87 90 94 94 90 92 92 90 89 93 99 98 100 99 99 91 88 95 96 98 91 86
74 86 74 97 87 88 97 99 95 96 94 88 88 88 75 71 70 68 66 63 68 77 81 81 80 80 82 83 79 78 80 83 86 90 91 90 87 80 76 81 90 98 100 100 100 100 100 100 98
Wind_Speed
11 12 11 7 4 4 3 6 3 3 2 5 11 3 6 9 5 5 7 10 11 16 23 25 25 23 22 21 20 19 18 16 15 13 11 13 13 12 15 15 14 14 16 16 13 12 17 16 15
12 14 10 4 4 3 5 4 5 7 5 17 11 9 5 4 9 6 16 12 10 14 19 22 23 22 21 20 19 18 18 17 16 15 14 13 14 14 17 16 18 14 16 12 15 17 18 17 15
13 15 7 4 4 5 5 5 6 8 16 11 6 11 7 5 8 5 13 13 15 17 19 20 22 22 20 19 18 18 17 17 16 16 14 14 16 17 18 18 17 14 12 13 17 19 17 15 13
9 5 4 4 7 7 5 4 3 5 4 8 10 7 9 10 9 6 9 12 16 19 20 20 22 22 19 17 17 16 17 17 17 16 15 15 17 18 19 18 13 13 13 15 18 17 16 14 11
11 4 3 2 5 5 3 10 6 3 5 6 9 5 11 8 9 9 12 13 14 18 19 19 21 21 19 17 16 16 16 17 18 18 17 17 17 19 21 18 14 14 16 17 17 16 14 12 9
4 3 3 4 5 4 4 12 1 4 1 10 4 8 6 16 6 6 10 13 13 17 21 18 21 20 18 17 16 16 16 18 18 19 19 18 19 20 20 18 15 16 18 17 17 16 14 13 10
5 3 4 3 3 3 4 4 3 1 3 3 7 5 8 10 12 5 12 13 13 16 21 21 22 21 18 19 17 16 16 18 19 20 20 20 20 20 20 18 17 17 19 18 17 16 15 13 10
5 3 2 4 3 5 2 3 3 2 3 2 4 2 4 18 17 5 13 15 14 16 16 18 22 22 21 21 19 17 16 19 19 20 21 21 21 20 21 18 18 18 19 19 18 16 15 13 10
5 2 3 3 6 4 5 7 4 5 9 6 7 5 5 10 12 9 10 17 17 17 18 19 19 19 21 21 19 18 18 18 19 21 22 22 23 23 22 21 20 19 21 20 19 17 14 13 11
3 3 6 4 1 2 8 5 12 6 11 9 12 17 15 14 11 10 10 13 17 19 21 21 22 21 21 23 20 19 19 20 21 22 23 24 24 23 24 23 21 22 23 21 19 17 15 14 12
2 4 3 4 6 8 7 14 11 6 10 10 10 12 19 21 17 14 11 11 15 19 25 22 23 20 22 21 20 21 19 19 21 21 22 25 25 26 27 25 24 26 28 24 21 18 16 15 13
1 5 5 5 9 10 8 9 13 19 22 29 32 34 29 26 23 19 16 12 12 18 23 21 24 22 20 20 18 22 20 13 16 21 24 27 29 30 29 28 28 29 29 26 23 20 17 15 14
2 3 10 14 19 19 20 16 16 23 31 35 38 35 34 28 26 23 20 18 15 15 19 22 23 22 21 20 20 20 16 18 13 15 24 29 32 35 31 30 30 30 30 27 25 21 18 16 15
3 10 15 15 20 15 13 15 9 21 25 26 28 33 32 29 24 21 25 22 17 14 17 18 22 23 22 22 24 22 23 25 23 25 26 31 34 38 35 31 32 31 31 29 26 23 19 16 15
7 7 7 10 6 5 4 5 10 28 24 30 31 32 34 33 27 23 23 26 21 17 16 19 20 23 26 27 29 29 27 29 34 30 31 35 39 40 40 34 33 34 33 30 27 24 21 19 18
4 2 5 3 3 6 6 7 12 17 20 24 27 30 32 32 30 26 22 27 26 21 20 21 22 22 24 26 28 29 28 29 31 31 31 32 39 41 42 38 34 35 33 30 29 25 23 21 19
2 2 3 7 2 3 6 9 6 19 18 24 31 34 32 31 29 24 23 23 28 23 21 24 22 23 26 27 28 27 27 28 31 38 31 35 40 50 47 40 34 35 34 30 29 26 24 22 21
0 3 4 7 5 1 12 22 24 31 22 27 30 32 32 32 28 24 21 23 27 27 23 24 25 21 23 27 28 26 27 26 28 39 39 33 41 38 32 27 30 32 33 30 29 28 24 23 19
1 5 14 14 13 10 15 18 22 27 18 21 28 26 25 25 25 28 23 21 26 26 30 26 26 24 24 26 28 26 29 29 29 34 37 35 32 25 23 24 27 29 32 31 30 26 24 24 20
8 11 15 14 8 5 13 18 20 18 13 20 23 20 22 22 25 25 24 25 25 25 30 29 28 25 25 24 22 22 24 22 25 31 31 33 34 41 27 31 31 31 34 33 30 29 26 24 23
10 8 14 13 13 12 11 11 5 4 4 6 9 13 15 18 16 13 19 22 24 27 30 29 29 27 23 19 21 23 21 18 24 34 30 31 29 31 29 26 29 36 33 33 31 28 28 29 24
10 7 11 11 8 4 6 9 4 5 8 6 13 12 16 19 19 15 16 22 20 27 28 26 25 22 19 17 22 25 26 21 23 29 31 27 31 31 31 33 29 28 31 29 28 28 29 27 25
7 4 7 9 11 8 8 6 5 6 8 10 13 18 18 17 16 14 17 18 22 22 25 25 24 21 18 18 22 27 26 29 29 29 27 28 25 27 29 25 26 30 32 32 30 30 29 27 26
7 9 12 10 5 5 1 6 4 5 12 13 12 20 21 15 16 15 15 14 19 21 23 23 23 18 16 18 25 31 31 28 30 33 35 29 28 27 28 27 26 30 31 32 31 30 26 24 23
4 6 4 4 1 4 2 4 3 16 22 9 9 11 11 6 6 7 12 15 15 15 18 19 18 19 19 21 26 28 27 33 27 26 31 28 27 24 21 23 25 27 28 27 26 26 25 23 25
3 2 2 4 2 3 2 5 4 15 10 14 15 11 16 15 15 14 7 8 11 15 13 19 23 15 15 20 18 12 29 18 19 19 17 16 17 16 15 15 17 18 19 19 21 24 29 32 33
1 4 2 3 3 2 3 1 2 18 15 16 20 19 17 24 24 29 25 21 27 18 17 25 26 25 24 14 12 9 8 12 15 11 10 7 10 13 20 20 23 20 19 22 26 30 33 31 30
5 3 2 2 4 2 3 3 5 14 13 13 12 16 20 24 25 33 28 34 35 38 32 30 26 26 23 14 11 11 8 3 8 7 8 9 7 11 13 19 19 25 29 25 24 28 35 32 33
1 2 3 2 2 2 3 3 6 8 10 12 14 18 19 22 24 25 26 26 29 28 23 21 20 20 21 18 14 8 9 9 7 10 8 11 13 12 11 13 18 23 26 30 33 32 28 31 35
3 4 2 2 2 2 1 3 4 5 9 11 12 11 18 22 23 25 28 28 29 27 25 24 21 18 15 12 9 9 9 7 6 5 5 5 5 6 6 9 13 17 20 21 21 21 24 28 29
Wind_Direction
159 161 152 139 77 64 253 253 295 281 202 9 312 301 248 255 202 231 161 155 155 176 174 180 181 182 180 180 181 183 183 180 177 176 177 172 168 166 156 147 156 146 142 146 140 140 130 132 128
157 154 144 102 95 112 262 238 212 242 330 334 334 341 324 268 220 247 172 175 164 174 176 181 183 186 185 184 185 185 186 187 183 182 175 173 173 167 158 153 153 160 160 155 152 139 136 134 131
165 160 139 120 136 199 212 214 220 335 326 329 342 334 313 289 245 243 187 184 174 181 180 184 187 189 188 188 190 190 191 191 189 186 182 179 176 172 166 167 171 167 164 152 140 142 141 138 131
161 154 84 122 201 256 202 202 103 340 14 359 344 300 310 323 300 214 207 177 174 185 187 189 192 191 192 193 195 197 197 197 195 192 189 185 181 177 173 178 179 166 159 149 145 147 146 144 138
157 117 87 169 232 251 206 280 330 319 302 327 338 309 310 4 289 266 206 196 182 180 185 193 193 192 194 199 203 205 206 202 201 198 195 190 187 184 183 184 177 168 163 159 155 155 156 154 145
104 115 111 227 241 273 251 259 279 286 357 334 10 340 303 10 319 224 214 223 214 193 184 184 190 192 194 204 208 209 209 207 205 202 200 196 193 192 192 188 184 174 169 166 163 161 162 160 154
121 101 206 200 244 276 251 252 193 195 312 313 342 323 300 323 344 235 236 212 209 207 194 188 188 193 197 201 207 208 205 200 205 206 203 200 197 195 196 194 193 183 175 172 169 165 166 166 168
128 98 175 227 187 265 312 317 314 322 293 318 354 281 334 349 346 266 215 230 219 211 213 206 195 194 194 197 199 197 201 203 203 204 205 204 201 197 198 200 199 192 182 177 174 171 171 173 176
126 78 238 230 165 243 7 16 338 295 278 297 280 297 291 323 337 332 238 221 226 218 218 218 219 213 204 205 205 201 194 206 206 205 204 208 204 201 203 208 204 198 189 183 179 177 177 181 184
114 143 213 237 241 313 317 323 320 310 298 290 268 273 264 269 310 330 301 253 231 226 224 218 226 230 222 214 208 208 202 205 204 209 206 207 205 208 208 207 205 200 194 189 184 183 184 187 193
132 200 227 268 268 292 304 306 290 286 282 259 260 265 289 288 282 291 316 302 262 239 233 228 232 232 227 228 225 221 206 214 209 205 211 208 202 205 209 207 209 201 197 191 189 190 191 192 198
302 250 259 281 296 308 293 295 291 271 267 282 282 283 281 278 271 267 272 289 292 254 232 229 232 222 230 230 231 229 219 202 221 210 208 214 205 202 210 213 210 202 199 192 194 195 197 200 204
201 286 289 288 295 286 283 268 262 272 279 274 277 279 279 276 273 264 262 272 288 265 243 227 233 229 222 225 233 219 222 217 247 256 226 218 211 208 216 215 211 205 198 196 197 198 203 208 211
320 305 293 291 279 277 270 271 267 267 271 274 275 276 275 273 266 265 249 252 268 266 245 234 235 234 233 224 208 215 246 232 241 256 257 228 222 218 218 216 212 207 203 200 200 203 208 212 218
308 312 312 269 275 254 259 273 233 266 274 272 276 278 280 271 267 254 250 243 245 250 246 240 235 234 234 229 233 242 239 243 246 251 254 245 223 223 220 214 218 213 207 203 203 206 211 215 221
354 3 340 283 156 265 148 263 253 279 272 262 266 270 276 275 266 260 256 242 237 240 243 234 239 239 240 241 240 240 240 248 252 242 242 242 224 228 222 213 218 218 213 205 203 209 213 218 224
360 280 256 303 250 264 189 282 259 297 265 263 269 270 269 273 265 260 257 244 231 239 236 232 234 243 242 239 238 243 248 250 249 239 233 237 229 217 224 216 214 215 216 209 209 210 217 223 228
357 317 288 267 300 287 288 280 281 281 252 253 261 263 262 265 265 265 252 240 219 232 232 237 236 242 242 245 244 247 249 251 249 238 231 237 229 222 213 212 220 222 221 217 216 214 220 230 231
277 269 283 280 274 281 264 268 274 274 254 236 250 254 251 254 271 269 255 239 238 226 228 236 232 237 234 240 245 250 260 255 241 233 232 232 219 215 195 202 210 221 227 220 217 220 221 232 233
266 281 292 289 279 255 281 276 274 282 265 240 248 257 255 265 277 265 252 241 244 232 220 227 228 229 238 239 237 248 250 259 234 229 230 224 228 223 226 205 208 219 231 220 218 222 226 234 232
253 253 280 277 293 264 281 278 253 256 309 295 258 262 265 259 284 265 243 241 242 234 220 221 225 230 229 240 239 232 240 239 242 226 221 221 214 205 220 218 209 219 220 220 220 227 231 233 228
272 240 268 289 295 292 54 296 246 330 317 349 324 298 285 266 269 258 245 250 233 219 218 217 221 216 228 236 233 234 230 226 224 226 221 219 210 211 215 214 218 222 226 229 227 231 232 230 231
242 324 273 270 263 295 251 256 275 2 333 329 308 314 304 286 268 272 260 256 227 219 212 213 214 216 228 245 242 233 234 236 237 230 220 211 206 207 212 214 217 228 230 232 230 226 228 232 233
284 296 276 257 244 246 238 211 299 349 307 300 295 309 313 279 262 261 252 235 220 215 210 212 210 215 235 252 259 245 244 239 237 231 212 212 211 210 215 216 221 232 231 230 232 232 236 241 243
200 286 316 351 246 245 319 250 299 324 316 283 274 323 29 1 272 251 233 211 217 211 202 204 206 214 254 277 244 233 247 235 227 208 199 200 207 209 218 221 224 228 231 234 237 239 240 242 249
300 260 267 289 288 291 291 332 338 331 359 53 55 76 57 60 47 88 136 203 233 215 192 218 220 211 218 201 156 103 197 184 191 178 189 206 217 220 231 239 236 237 236 238 244 252 256 255 259
66 223 204 275 234 264 295 314 295 344 4 50 39 60 54 58 43 68 75 76 116 152 170 179 164 143 123 94 72 114 81 111 123 135 149 165 190 215 227 250 251 233 247 248 250 260 264 261 260
229 351 266 235 317 317 336 71 343 340 346 35 46 38 50 82 64 69 59 62 78 92 96 97 89 93 101 115 80 89 99 117 186 185 190 189 234 268 252 243 239 242 245 254 251 271 253 257 260
260 261 241 283 175 333 351 32 357 360 2 45 44 40 52 61 64 68 71 71 76 86 85 88 88 85 86 95 109 111 119 128 148 178 196 225 251 263 251 243 241 246 249 252 264 270 264 258 262
171 248 231 153 305 50 91 33 12 17 36 51 61 71 67 80 80 80 80 79 80 83 85 85 87 95 97 90 93 91 101 115 144 179 201 228 251 269 270 252 243 242 247 251 255 262 267 271 274